Weather in Vaganovo

Russia / Kemerovo Oblast     54°42′00″N   85°09′31″E
temp.,
°C
wind,
m/s
gust,
m/s
humid.,
%
clouds,
%
prec.,
mm/h
press.,
hPa
HPBL,
m
9 may, sun
sun901:00+10nw258080 0.9 1016154
04:00+6n238111 0.0 101765
07:00+6nne36773 0.0 1018333
10:00+9n45565 0.0 1018910
13:00+11n55415 0.0 10181551
16:00+12n553653 0.0 10181967
19:00+10nne663970 0.0 10191880
22:00+6ne38555 0.0 1021192
10 may, mon
mon1001:00+5ne411670 0.0 1022418
04:00+3ne310845 0.0 1022319
07:00+4ne310878 0.0 1023442
10:00+9ene68535 0.0 10221091
13:00+13ene67370 0.0 10201342
16:00+16ene67310 0.0 10191698
19:00+15ene68385 0.0 10182010
22:00+10ene5125550 0.0 1018348
11 may, tue
tue1101:00+7ne4126586 0.0 1018368
04:00+6ne51269100 0.0 1017403
07:00+7nne5127212 0.0 1016582
10:00+12ne710504 0.0 10151264
13:00+16ne79365 0.0 10142152
16:00+18ne7729100 0.0 10132958
19:00+16nne793781 0.0 10141895
22:00+11n7126292 0.3 1017598
12 may, wed
wed1201:00+9n4979100 1.3 1017456
04:00+7nnw4890100 0.3 1017329
07:00+7nnw488710 0.4 1018319
10:00+12n46605 0.0 1018730
13:00+16n564154 0.3 10172194
16:00+16nne464099 0.1 10172007
19:00+16n464142 0.1 10171734
22:00+12e245890 0.0 101880
13 may, thu
thu1301:00+11wsw116099 0.0 101916
04:00+8w11705 0.0 101912
07:00+9wsw12644 0.0 101968
10:00+15wnw24410 0.0 10191224
13:00+18wnw5527100 0.0 10182210
16:00+18wnw562767 0.0 10162300
19:00+17wnw473297 0.0 10152033
22:00+13w2552100 0.0 101498